Tracking 33446 objects as of 10-Mar-2026
HD Live streaming from Space Station
objects crossing your sky now

KUIPER-00101

Track KUIPER-00101 now!
10-day predictions
KUIPER-00101 is classified as:


NORAD ID: 65947
Int'l Code: 2025-228A
Perigee: 636.1 km
Apogee: 637.3 km
Inclination: 51.9 °
Period: 97.3 minutes
Semi major axis: 7007 km
RCS: Unknown
Launch date: October 14, 2025
Source: United States (US)
Launch site: AIR FORCE EASTERN TEST RANGE (AFETR)
Your satellite tracking list
Your tracking list is empty




NASA's NSSDC Master Catalog

Two Line Element Set (TLE):
1 65947U 25228A   26069.10050189 -.00002147  00000-0 -25264-3 0  9995
2 65947  51.9007 358.7562 0000875 121.2482 238.8566 14.79935485 23290
Source of the keplerian elements: AFSPC